Location: Leiter
(44.7178°N, 106.2687°W)
Time: 09:22:26
(UTC+00:00)

ESTCUBE 1 - Pass Details

Date: 29 June 2022
Orbit: 645 x 657 km, 97.9° (Epoch: 15 August)

Event Time Altitude Azimuth Distance (km) Brightness Sun altitude
Exits shadow 04:21:49 16° 119° (ESE) 1,700 ? -12.1°
Maximum altitude 04:24:39 30° 68° (ENE) 1,171 ? -12.4°
Drops below altitude 10° 04:28:32 10° 7° (N) 2,058 ? -12.9°
Sets 04:30:58 0° 357° (N) 2,975 ? -13.1°
